{"data":{"norad_id":63454,"epoch":"2026-09-20T20:25:20.204256Z","epoch_age_seconds":125196,"freshness":"FRESH","line1":"1 63454U 25069X   26263.85092829  .00010489  00000+0  32115-3 0  9992","line2":"2 63454  53.1606 308.2221 0001605  72.8984 287.2195 15.34398725 83386","mean_motion":15.34398725,"eccentricity":0.0001605,"inclination_deg":53.1606,"raan_deg":308.2221,"arg_perigee_deg":72.8984,"mean_anomaly_deg":287.2195,"bstar":0.00032115,"rev_number":8338,"period_min":93.847836063602,"perigee_km":461.60907431164,"apogee_km":463.8049852452,"semimajor_km":6840.8440297784,"source":"CELESTRAK","updated_at":"2026-09-21T09:00:35.005768Z"}}